TimeEST,TemperatureF,Dew PointF,Humidity,Sea Level PressureIn,VisibilityMPH,Wind Direction,Wind SpeedMPH,Gust SpeedMPH,PrecipitationIn,Events,Conditions,WindDirDegrees,DateUTC
12:10 AM,28.4,24.8,86,30.34,0.2,Calm,Calm,-,N/A,Fog,Light Freezing Fog,0,2012-12-13 05:10:00
12:32 AM,26.6,24.8,93,30.35,1.5,SSE,3.5,-,N/A,,Scattered Clouds,150,2012-12-13 05:32:00
12:54 AM,26.1,24.1,92,30.38,1.5,Calm,Calm,-,N/A,,Scattered Clouds,0,2012-12-13 05:54:00
1:54 AM,25.0,23.0,92,30.38,1.5,Calm,Calm,-,N/A,,Partly Cloudy,0,2012-12-13 06:54:00
2:03 AM,24.8,23.0,93,30.35,4.0,Calm,Calm,-,N/A,,Partly Cloudy,0,2012-12-13 07:03:00
2:54 AM,24.1,21.9,91,30.39,6.0,Calm,Calm,-,N/A,,Partly Cloudy,0,2012-12-13 07:54:00
3:33 AM,26.6,23.0,86,30.37,0.2,Calm,Calm,-,N/A,Fog,Light Freezing Fog,0,2012-12-13 08:33:00
3:54 AM,26.1,21.9,84,30.40,0.2,SSE,3.5,-,N/A,Fog,Light Freezing Fog,150,2012-12-13 08:54:00
4:33 AM,26.6,21.2,80,30.36,4.0,Calm,Calm,-,N/A,,Partly Cloudy,0,2012-12-13 09:33:00
4:54 AM,26.1,21.9,84,30.39,0.2,Calm,Calm,-,N/A,Fog,Light Freezing Fog,0,2012-12-13 09:54:00
5:26 AM,26.6,21.2,80,30.35,1.0,Calm,Calm,-,N/A,,Partly Cloudy,0,2012-12-13 10:26:00
5:36 AM,26.6,21.2,80,30.36,4.0,Calm,Calm,-,N/A,,Partly Cloudy,0,2012-12-13 10:36:00
5:54 AM,26.1,21.9,84,30.39,0.2,Calm,Calm,-,N/A,Fog,Light Freezing Fog,0,2012-12-13 10:54:00
6:54 AM,28.4,26.6,93,30.40,0.2,Calm,Calm,-,N/A,Fog,Light Freezing Fog,0,2012-12-13 11:54:00
7:27 AM,26.6,21.2,80,30.40,4.0,Calm,Calm,-,N/A,,Scattered Clouds,0,2012-12-13 12:27:00
7:54 AM,26.1,21.9,84,30.43,8.0,Calm,Calm,-,N/A,,Partly Cloudy,0,2012-12-13 12:54:00
8:40 AM,28.4,23.0,80,30.40,0.8,Calm,Calm,-,0.00,,Mostly Cloudy,0,2012-12-13 13:40:00
8:54 AM,28.9,23.0,78,30.44,0.2,Calm,Calm,-,0.00,Fog,Light Freezing Fog,0,2012-12-13 13:54:00
9:30 AM,28.4,24.8,86,30.41,1.0,Calm,Calm,-,N/A,,Scattered Clouds,0,2012-12-13 14:30:00
9:54 AM,28.9,25.0,85,30.44,4.0,Calm,Calm,-,N/A,,Partly Cloudy,0,2012-12-13 14:54:00
10:54 AM,32.0,28.0,85,30.43,9.0,Calm,Calm,-,N/A,,Clear,0,2012-12-13 15:54:00
11:54 AM,37.9,28.9,70,30.41,10.0,Calm,Calm,-,N/A,,Clear,0,2012-12-13 16:54:00
12:54 PM,45.0,28.9,53,30.37,10.0,Calm,Calm,-,N/A,,Clear,0,2012-12-13 17:54:00
1:54 PM,48.9,24.1,38,30.35,10.0,Calm,Calm,-,N/A,,Clear,0,2012-12-13 18:54:00
2:54 PM,50.0,21.9,33,30.34,10.0,Calm,Calm,-,N/A,,Clear,0,2012-12-13 19:54:00
3:54 PM,50.0,21.9,33,30.33,10.0,Calm,Calm,-,N/A,,Clear,0,2012-12-13 20:54:00
4:54 PM,48.9,21.0,33,30.33,10.0,Calm,Calm,-,N/A,,Clear,0,2012-12-13 21:54:00
7:54 PM,35.6,26.6,70,30.31,10.0,Calm,Calm,-,N/A,,Clear,0,2012-12-14 00:54:00
8:54 PM,32.0,26.1,79,30.33,10.0,Calm,Calm,-,N/A,,Clear,0,2012-12-14 01:54:00
9:54 PM,32.0,26.1,79,30.32,10.0,Calm,Calm,-,N/A,,Clear,0,2012-12-14 02:54:00
10:54 PM,30.0,25.0,82,30.32,10.0,Calm,Calm,-,N/A,,Clear,0,2012-12-14 03:54:00
11:54 PM,28.9,25.0,85,30.32,7.0,Calm,Calm,-,N/A,,Clear,0,2012-12-14 04:54:00